Location: Edinburgh
(55.9500°N, 3.1600°W)
Time: 15:48:51
(UTC+00:00)

Vanguard 1 Rocket - All Passes

Search period start: 15 December 2017 00:00
Search period end: 25 December 2017 00:00
Orbit: 656 x 4222 km, 34.3° (Epoch: 13 December)

Date Brightness Start Highest point End Pass type
(mag) Time Alt. Az. Time Alt. Az. Time Alt. Az.
15 Dec - 00:02:49 10° WSW 00:13:51 16° SW 00:26:24 10° SSW visible
15 Dec - 15:40:21 10° SSE 15:44:45 13° SE 15:50:14 10° ESE daylight
15 Dec - 17:58:55 10° SW 18:08:27 29° SSE 18:23:41 10° ESE visible
15 Dec - 20:22:06 10° WSW 20:34:33 32° S 20:53:24 10° SE visible
15 Dec - 22:48:46 10° WSW 23:01:36 22° SSW 23:17:42 10° S visible
16 Dec - 16:49:51 10° SSW 16:57:24 23° SSE 17:08:50 10° ESE visible
16 Dec - 19:11:38 10° SW 19:22:27 32° S 19:39:42 10° SE visible
16 Dec - 21:36:31 10° WSW 21:49:12 26° SSW 22:06:44 10° SSE visible
17 Dec - 00:09:10 10° WSW 00:15:40 12° SW 00:22:45 10° SSW visible
17 Dec - 15:42:03 10° S 15:46:56 15° SE 15:53:20 10° ESE daylight
17 Dec - 18:01:44 10° SW 18:10:50 29° SSE 18:25:28 10° ESE visible
17 Dec - 20:25:16 10° WSW 20:36:54 29° SSW 20:54:20 10° SE visible
17 Dec - 22:52:59 10° WSW 23:03:38 18° SW 23:16:40 10° S visible
18 Dec - 16:52:28 10° SSW 16:59:46 23° SSE 17:10:57 10° ESE visible
18 Dec - 19:14:42 10° SW 19:24:53 30° S 19:41:01 10° SE visible
18 Dec - 21:40:09 10° WSW 21:51:25 22° SSW 22:06:42 10° SSE visible
19 Dec - 15:44:10 10° S 15:49:14 16° SE 15:56:04 10° ESE daylight
19 Dec - 18:04:42 10° SW 18:13:18 28° S 18:27:08 10° ESE visible
19 Dec - 20:28:38 10° WSW 20:39:16 26° SSW 20:54:57 10° SSE visible
19 Dec - 22:58:31 10° WSW 23:05:42 13° SW 23:14:01 10° SSW visible
20 Dec - 16:55:16 10° SSW 17:02:14 23° SSE 17:12:59 10° ESE visible
20 Dec - 19:17:55 10° WSW 19:27:23 27° S 19:42:06 10° SE visible
20 Dec - 21:44:16 10° WSW 21:53:42 18° SSW 22:05:56 10° S visible
21 Dec - 15:46:37 10° S 15:51:39 17° SSE 15:58:34 10° ESE daylight
21 Dec - 18:07:48 10° SW 18:15:53 26° S 18:28:38 10° SE visible
21 Dec - 20:32:16 10° WSW 20:41:43 21° SSW 20:55:07 10° SSE visible
22 Dec - 16:58:13 10° SW 17:04:48 23° SSE 17:14:52 10° ESE visible
22 Dec - 19:21:20 10° WSW 19:29:57 23° S 19:42:55 10° SSE visible
22 Dec - 21:49:32 10° SW 21:56:02 13° SSW 22:03:49 10° S visible
23 Dec - 15:49:19 10° SSW 15:54:11 17° SSE 16:00:55 10° ESE daylight
23 Dec - 18:11:03 10° SW 18:18:30 23° S 18:29:56 10° SE visible
23 Dec - 20:36:25 10° WSW 20:44:13 17° SSW 20:54:37 10° S visible
24 Dec - 14:42:21 10° SSE 14:43:56 11° SSE 14:45:42 10° SE daylight
24 Dec - 17:01:20 10° SW 17:07:27 21° S 17:16:37 10° SE visible
24 Dec - 19:25:01 10° SW 19:32:34 19° SSW 19:43:19 10° SSE visible
